Miscellaneous Local Product
Issued by NWS Hastings, NE

Home | Current Version | Previous Version | Graphics & Text | Print | Product List | Glossary On
Versions: 1 2 3 4 5 6 7 8 9 10 11 12 13 14 15 16 17 18 19 20 21 22 23 24 25 26 27 28 29 30 31 32 33 34 35 36 37 38 39 40 41 42 43 44 45 46 47 48 49 50
147
AXUS43 KGID 100902
MISGRI

GID CWA HOURLY WEATHER ROUNDUP
NATIONAL WEATHER SERVICE HASTINGS NE
300 AM CST SAT DEC 10 2016

NOTE: "FAIR" INDICATES FEW OR NO CLOUDS BELOW 12,000 FEET WITH NO
SIGNIFICANT WEATHER AND/OR OBSTRUCTIONS TO VISIBILITY.

...SOUTH CENTRAL NEBRASKA...

CITY           SKY/WX    TMP DP  RH WIND       PRES   REMARKS
GRAND ISLAND   CLOUDY    20  15  81 SE7       30.38R WCI  11
HASTINGS       CLOUDY    19  13  77 SE7       30.37R WCI  10
KEARNEY        CLOUDY    19  12  73 SE8       30.33S WCI   9
ORD            CLOUDY    17  11  77 E6        30.36R WCI   9
YORK           CLOUDY    19  16  86 CALM      30.41R
AURORA         CLOUDY    20  15  80 SE5       30.38R WCI  13
LEXINGTON      CLOUDY    18  13  79 SE8       30.27F WCI   8
HOLDREGE       CLOUDY    19  14  79 SE7       30.29F WCI  10
HEBRON         CLOUDY    17  14  86 CALM      30.41S

...NEBRASKA PANHANDLE...

CITY           SKY/WX    TMP DP  RH WIND       PRES   REMARKS
CHADRON        CLOUDY    10   2  69 E3        30.14F
ALLIANCE       CLOUDY    11   7  84 SE9       30.09F WCI  -2
SCOTTSBLUFF    CLOUDY    14   7  73 E16       30.04F WCI  -2
SIDNEY         CLOUDY    20  16  84 SE7       30.08S WCI  11

...WESTERN AND NORTH CENTRAL NEBRASKA...

CITY           SKY/WX    TMP DP  RH WIND       PRES   REMARKS
VALENTINE      LGT SNOW   7   1  78 E8        30.30F FOG     WCI  -6
AINSWORTH      LGT SNOW   9   6  90 E6        30.31R WCI  -1
ONEILL         LGT SNOW  11   8  89 NE7       30.38F WCI   0
BROKEN BOW     CLOUDY    21  13  71 SE7       30.28F WCI  12
IMPERIAL       CLOUDY    18  13  80 E9        30.14F WCI   7
NORTH PLATTE   CLOUDY    18  12  77 E8        30.23F WCI   8
MCCOOK         CLOUDY    18  13  80 E6        30.22F WCI  10

...EASTERN NEBRASKA...

CITY           SKY/WX    TMP DP  RH WIND       PRES   REMARKS
NORFOLK        CLOUDY    15  11  83 CALM      30.42R
SO SIOUX CITY  FLURRIES  20  12  71 CALM      30.49S
TEKAMAH        CLOUDY    20  13  74 N6        30.47F WCI  12
COLUMBUS       CLOUDY    19  14  79 E6        30.42S WCI  11
ALBION         CLOUDY    17  13  83 E7        30.39S WCI   8
OMAHA EPPLEY   CLOUDY    23  13  65 SE5       30.47F WCI  17
OFFUTT AFB     CLOUDY    23  15  74 E5        30.46F WCI  16
MILLARD        CLOUDY    25  16  68 CALM      30.46F
LINCOLN        PTCLDY    22  15  75 SE3       30.46R
NEBRASKA CITY  CLOUDY    24  12  60 CALM      30.46R
BEATRICE       CLOUDY    20  15  81 CALM      30.42F
FALLS CITY     CLOUDY    26  16  65 SE6       30.46F WCI  19

...NORTHERN KANSAS...

CITY           SKY/WX    TMP DP  RH WIND       PRES   REMARKS
GOODLAND       CLOUDY    21  18  88 S10       30.12F WCI  10
HILL CITY      CLOUDY    21  13  71 E5        30.27F WCI  15
NORTON         SUNNY     19  10  68 SE7       30.24F WCI  10
PHILLIPSBURG   CLEAR     21  16  79 E7        30.32F WCI  13
SMITH CENTER   CLEAR     19  14  79 SE8       30.35S WCI   9
BELOIT         CLEAR     21  14  73 E7        30.38F WCI  13
HAYS           CLOUDY    19  14  81 SE9       30.30F WCI   8
RUSSELL        CLEAR     20  13  74 S12       30.31F WCI   8
CONCORDIA      CLOUDY    20  15  81 CALM      30.39F
SALINA         PTCLDY    24  15  68 SE7       30.41F WCI  16
TOPEKA         CLOUDY    23  15  71 SE3       30.49R



USA.gov is the U.S. government's official web portal to all federal, state and local government web resources and services.